UAL934 KEWR-EGLL

Flight info

Callsign UAL934
Flight time 6h 15m
Altitude 37000
Route MERIT DCT HFD DCT PUT DCT BOS DCT BRADD N261B NICSO/M083F380 DCT 48N050W 50N040W 52N030W 53N020W DCT MALOT DCT GISTI/N0466F390 DCT ENJEX DCT AVZAC DCT INFEC DCT JETZI DCT AMFUL DCT ORZEB/N0375F230 P2 SIRIC
Aircraft B77W/H-SDE1E2E3FGHIJ2J3J4J5M1RWXY/LB1D1

Departure

Time 2026-05-04 13:43
Airport Newark Liberty International Airport (KEWR)

Arrival

Time 2026-05-04 19:58
Airport London Heathrow Airport (EGLL)
Time Latitude Longitude Altitude Speed Heading
2026-05-04 13:26 40.69914 -74.18041 25 ft 0 kts 151°
2026-05-04 13:33 40.69920 -74.18046 30 ft 2 kts 151°
2026-05-04 13:33 40.69935 -74.18056 27 ft 2 kts 151°
2026-05-04 13:33 40.69949 -74.18066 30 ft 2 kts 151°
2026-05-04 13:34 40.69963 -74.18077 30 ft 2 kts 151°
2026-05-04 13:34 40.69977 -74.18087 30 ft 2 kts 148°
2026-05-04 13:34 40.69988 -74.18103 30 ft 2 kts 114°
2026-05-04 13:34 40.69993 -74.18123 30 ft 2 kts 89°
2026-05-04 13:35 40.69990 -74.18144 30 ft 2 kts 60°
2026-05-04 13:35 40.69969 -74.18165 30 ft 0 kts 15°
2026-05-04 13:38 40.69970 -74.18164 25 ft 1 kts 15°
2026-05-04 13:39 40.70031 -74.18142 30 ft 16 kts 15°
2026-05-04 13:39 40.70141 -74.18094 29 ft 17 kts 37°
2026-05-04 13:39 40.70163 -74.17947 25 ft 17 kts 94°
2026-05-04 13:39 40.70152 -74.17793 27 ft 17 kts 95°
2026-05-04 13:40 40.70142 -74.17640 28 ft 17 kts 95°
2026-05-04 13:40 40.70132 -74.17485 29 ft 17 kts 94°
2026-05-04 13:40 40.70122 -74.17330 28 ft 17 kts 95°
2026-05-04 13:40 40.70113 -74.17174 26 ft 17 kts 95°
2026-05-04 13:41 40.70103 -74.17019 27 ft 17 kts 95°
2026-05-04 13:41 40.70094 -74.16864 25 ft 17 kts 94°
2026-05-04 13:41 40.70082 -74.16710 27 ft 17 kts 96°
2026-05-04 13:42 40.70053 -74.16403 26 ft 17 kts 116°
2026-05-04 13:42 40.69955 -74.16408 24 ft 16 kts 211°
2026-05-04 13:42 40.69845 -74.16478 28 ft 25 kts 205°
2026-05-04 13:42 40.69545 -74.16669 31 ft 82 kts 206°
2026-05-04 13:43 40.68811 -74.17135 26 ft 149 kts 206°
2026-05-04 13:43 40.67755 -74.17777 310 ft 174 kts 200°
2026-05-04 13:43 40.66543 -74.17981 958 ft 182 kts 184°
2026-05-04 13:43 40.65250 -74.17937 1604 ft 197 kts 180°
2026-05-04 13:44 40.63802 -74.17890 1840 ft 216 kts 198°
2026-05-04 13:44 40.62352 -74.18633 2379 ft 230 kts 207°
2026-05-04 13:44 40.60793 -74.19220 3097 ft 244 kts 182°
2026-05-04 13:44 40.59143 -74.18560 3915 ft 261 kts 154°
2026-05-04 13:45 40.57767 -74.16928 4791 ft 275 kts 131°
2026-05-04 13:45 40.56921 -74.14618 5600 ft 289 kts 105°
2026-05-04 13:45 40.56725 -74.11961 6371 ft 297 kts 90°
2026-05-04 13:45 40.57189 -74.09301 7132 ft 301 kts 59°
2026-05-04 13:46 40.58488 -74.07176 7953 ft 299 kts 40°
2026-05-04 13:46 40.60063 -74.05371 8812 ft 301 kts 36°
2026-05-04 13:46 40.61694 -74.03635 9655 ft 303 kts 36°
2026-05-04 13:46 40.63346 -74.01870 10400 ft 309 kts 36°
2026-05-04 13:47 40.65036 -74.00039 10713 ft 331 kts 36°
2026-05-04 13:47 40.66888 -73.97993 10907 ft 356 kts 37°
2026-05-04 13:47 40.68804 -73.95837 11200 ft 376 kts 38°
2026-05-04 13:47 40.70829 -73.93521 11834 ft 386 kts 38°
2026-05-04 13:48 40.72842 -73.91192 12561 ft 392 kts 39°
2026-05-04 13:48 40.74895 -73.88798 13405 ft 395 kts 39°
2026-05-04 13:48 40.76964 -73.86377 14221 ft 399 kts 38°
2026-05-04 13:48 40.79047 -73.83935 14974 ft 403 kts 38°
2026-05-04 13:49 40.81157 -73.81458 15692 ft 408 kts 38°
2026-05-04 13:49 40.83289 -73.78956 16426 ft 413 kts 38°
2026-05-04 13:49 40.85449 -73.76417 17167 ft 417 kts 38°
2026-05-04 13:49 40.87633 -73.73849 17915 ft 422 kts 37°
2026-05-04 13:50 40.89809 -73.71289 18609 ft 426 kts 37°
2026-05-04 13:50 40.92033 -73.68668 19295 ft 429 kts 37°
2026-05-04 13:50 40.94272 -73.66027 20012 ft 432 kts 37°
2026-05-04 13:50 40.96523 -73.63369 20730 ft 435 kts 37°
2026-05-04 13:51 40.98792 -73.60689 21430 ft 438 kts 37°
2026-05-04 13:51 41.01075 -73.57989 22113 ft 442 kts 38°
2026-05-04 13:51 41.03387 -73.55252 22779 ft 445 kts 38°
2026-05-04 13:51 41.05703 -73.52508 23475 ft 449 kts 38°
2026-05-04 13:52 41.10368 -73.46970 24573 ft 456 kts 38°
2026-05-04 13:52 41.12748 -73.44141 25107 ft 460 kts 38°
2026-05-04 13:52 41.15141 -73.41295 25636 ft 464 kts 38°
2026-05-04 13:53 41.17561 -73.38413 26145 ft 468 kts 38°
2026-05-04 13:53 41.19992 -73.35514 26652 ft 472 kts 38°
2026-05-04 13:53 41.22448 -73.32582 27164 ft 476 kts 38°
2026-05-04 13:54 41.27411 -73.26647 28156 ft 483 kts 38°
2026-05-04 13:54 41.29886 -73.23682 28635 ft 487 kts 38°
2026-05-04 13:54 41.34961 -73.17586 29527 ft 495 kts 39°
2026-05-04 13:55 41.37368 -73.14258 29958 ft 502 kts 46°
2026-05-04 13:55 41.41469 -73.06640 30795 ft 509 kts 56°
2026-05-04 13:55 41.43254 -73.02557 31261 ft 509 kts 57°
2026-05-04 13:56 41.44996 -72.98502 31699 ft 510 kts 57°
2026-05-04 13:56 41.46762 -72.94398 32115 ft 510 kts 57°
2026-05-04 13:56 41.50329 -72.86198 32962 ft 510 kts 57°
2026-05-04 13:57 41.52123 -72.82107 33374 ft 511 kts 57°
2026-05-04 13:57 41.53924 -72.78007 33767 ft 512 kts 57°
2026-05-04 13:58 41.59308 -72.65707 34723 ft 514 kts 57°
2026-05-04 13:58 41.62911 -72.57440 35294 ft 516 kts 57°
2026-05-04 13:58 41.64720 -72.53290 35582 ft 516 kts 57°
2026-05-04 13:59 41.66555 -72.49167 35869 ft 516 kts 56°
2026-05-04 13:59 41.68417 -72.45047 36142 ft 517 kts 56°
2026-05-04 13:59 41.72134 -72.36852 36706 ft 517 kts 56°
2026-05-04 14:00 41.74000 -72.32718 36884 ft 520 kts 57°
2026-05-04 14:00 41.79613 -72.20189 36943 ft 520 kts 57°
2026-05-04 14:01 41.83308 -72.11897 36955 ft 516 kts 57°
2026-05-04 14:02 41.88822 -71.99495 36956 ft 515 kts 57°
2026-05-04 14:02 41.92464 -71.91275 36955 ft 516 kts 57°
2026-05-04 14:03 41.96135 -71.82979 36960 ft 517 kts 56°
2026-05-04 14:03 41.99984 -71.74796 36960 ft 518 kts 54°
2026-05-04 14:04 42.05876 -71.62584 36944 ft 520 kts 55°
2026-05-04 14:04 42.09775 -71.54376 36948 ft 521 kts 55°
2026-05-04 14:05 42.15602 -71.42011 36930 ft 522 kts 55°
2026-05-04 14:06 42.19471 -71.33775 36934 ft 522 kts 56°
2026-05-04 14:06 42.23361 -71.25478 36933 ft 522 kts 56°
2026-05-04 14:07 42.27239 -71.17183 36930 ft 522 kts 56°
2026-05-04 14:07 42.31107 -71.08887 36916 ft 522 kts 56°
2026-05-04 14:08 42.34819 -71.00455 36913 ft 523 kts 62°
2026-05-04 14:08 42.37507 -70.91318 36913 ft 523 kts 72°
2026-05-04 14:09 42.40495 -70.77186 36915 ft 523 kts 73°
2026-05-04 14:10 42.43503 -70.62976 36904 ft 523 kts 73°
2026-05-04 14:10 42.45541 -70.53483 36906 ft 524 kts 73°
2026-05-04 14:11 42.47573 -70.43999 36911 ft 524 kts 73°
2026-05-04 14:11 42.50597 -70.29782 36914 ft 525 kts 73°
2026-05-04 14:12 42.52615 -70.20234 36917 ft 526 kts 73°
2026-05-04 14:13 42.55616 -70.05944 36916 ft 527 kts 74°
2026-05-04 14:13 42.57617 -69.96365 36915 ft 528 kts 74°
2026-05-04 14:14 42.59617 -69.86746 36912 ft 529 kts 74°
2026-05-04 14:14 42.62604 -69.72295 36911 ft 530 kts 74°
2026-05-04 14:15 42.66547 -69.53063 36910 ft 531 kts 74°
2026-05-04 14:16 42.69499 -69.38544 36914 ft 531 kts 75°
2026-05-04 14:17 42.72105 -69.25640 36909 ft 531 kts 75°
2026-05-04 14:18 42.75024 -69.11089 36909 ft 531 kts 75°
2026-05-04 14:19 42.78887 -68.91661 36907 ft 531 kts 75°
2026-05-04 14:19 42.80805 -68.81950 36911 ft 531 kts 75°
2026-05-04 14:20 42.82703 -68.72285 36909 ft 531 kts 75°
2026-05-04 14:20 42.84607 -68.62549 36907 ft 531 kts 75°
2026-05-04 14:21 42.87445 -68.47939 36907 ft 531 kts 75°
2026-05-04 14:21 42.89328 -68.38188 36906 ft 531 kts 75°
2026-05-04 14:22 42.91203 -68.28428 36908 ft 532 kts 75°
2026-05-04 14:22 42.93057 -68.18728 36907 ft 532 kts 75°
2026-05-04 14:23 42.95848 -68.04034 36911 ft 533 kts 76°
2026-05-04 14:24 42.97699 -67.94227 36910 ft 533 kts 76°
2026-05-04 14:24 42.99548 -67.84380 36909 ft 534 kts 76°
2026-05-04 14:25 43.01375 -67.74597 36911 ft 534 kts 76°
2026-05-04 14:25 43.04120 -67.59810 36910 ft 535 kts 76°
2026-05-04 14:26 43.05942 -67.49928 36910 ft 535 kts 76°
2026-05-04 14:26 43.07755 -67.40039 36911 ft 536 kts 76°
2026-05-04 14:27 43.09551 -67.30194 36908 ft 536 kts 76°
2026-05-04 14:27 43.11350 -67.20284 36913 ft 536 kts 76°
2026-05-04 14:28 43.13144 -67.10350 36912 ft 536 kts 76°
2026-05-04 14:28 43.15121 -67.00570 36915 ft 536 kts 70°
2026-05-04 14:29 43.21666 -66.82269 36909 ft 535 kts 60°
2026-05-04 14:30 43.25158 -66.73249 36906 ft 536 kts 61°
2026-05-04 14:31 43.30327 -66.59626 36899 ft 536 kts 61°
2026-05-04 14:32 43.37162 -66.41394 36894 ft 536 kts 61°
2026-05-04 14:32 43.40576 -66.32256 36896 ft 536 kts 61°
2026-05-04 14:33 43.43953 -66.23191 36894 ft 535 kts 62°
2026-05-04 14:33 43.47339 -66.14071 36889 ft 535 kts 62°
2026-05-04 14:34 43.50716 -66.04949 36889 ft 534 kts 62°
2026-05-04 14:34 43.54086 -65.95810 36884 ft 533 kts 62°
2026-05-04 14:35 43.57419 -65.86745 36886 ft 533 kts 62°
2026-05-04 14:35 43.60763 -65.77620 36883 ft 532 kts 62°
2026-05-04 14:36 43.64099 -65.68488 36878 ft 532 kts 62°
2026-05-04 14:36 43.67427 -65.59346 36876 ft 532 kts 62°
2026-05-04 14:37 43.70749 -65.50189 36869 ft 532 kts 62°
2026-05-04 14:37 43.74062 -65.41029 36866 ft 533 kts 62°
2026-05-04 14:38 43.77370 -65.31854 36863 ft 533 kts 62°
2026-05-04 14:38 43.80648 -65.22728 36859 ft 533 kts 62°
2026-05-04 14:39 43.83944 -65.13522 36839 ft 533 kts 62°
2026-05-04 14:39 43.87236 -65.04299 36854 ft 533 kts 62°
2026-05-04 14:40 43.92146 -64.90482 36852 ft 533 kts 62°
2026-05-04 14:40 43.95420 -64.81231 36825 ft 533 kts 63°
2026-05-04 14:41 43.98687 -64.71969 36829 ft 534 kts 63°
2026-05-04 14:42 44.05178 -64.53470 36823 ft 534 kts 63°
2026-05-04 14:42 44.08424 -64.44170 36823 ft 534 kts 63°
2026-05-04 14:43 44.11658 -64.34874 36816 ft 534 kts 63°
2026-05-04 14:43 44.14886 -64.25566 36817 ft 533 kts 63°
2026-05-04 14:44 44.18102 -64.16258 36810 ft 533 kts 63°
2026-05-04 14:44 44.21292 -64.06996 36803 ft 533 kts 63°
2026-05-04 14:45 44.24488 -63.97682 36792 ft 532 kts 63°
2026-05-04 14:45 44.27679 -63.88349 36778 ft 531 kts 63°
2026-05-04 14:46 44.30833 -63.79095 36765 ft 530 kts 63°
2026-05-04 14:46 44.33996 -63.69783 36752 ft 529 kts 64°
2026-05-04 14:47 44.37149 -63.60467 36738 ft 529 kts 64°
2026-05-04 14:47 44.40281 -63.51179 36734 ft 528 kts 64°
2026-05-04 14:48 44.43405 -63.41885 36734 ft 528 kts 64°
2026-05-04 14:48 44.46505 -63.32631 36734 ft 528 kts 64°
2026-05-04 14:49 44.49619 -63.23300 36733 ft 528 kts 64°
2026-05-04 14:49 44.52727 -63.13956 36734 ft 529 kts 64°
2026-05-04 14:50 44.55831 -63.04590 36726 ft 530 kts 64°
2026-05-04 14:50 44.58912 -62.95261 36722 ft 530 kts 64°
2026-05-04 14:51 44.62007 -62.85857 36717 ft 531 kts 64°
2026-05-04 14:51 44.65095 -62.76442 36707 ft 531 kts 64°
2026-05-04 14:52 44.68176 -62.67010 36707 ft 531 kts 65°
2026-05-04 14:52 44.71253 -62.57559 36704 ft 531 kts 65°
2026-05-04 14:53 44.74324 -62.48095 36696 ft 531 kts 65°
2026-05-04 14:53 44.77366 -62.38684 36691 ft 531 kts 65°
2026-05-04 14:54 44.80422 -62.29195 36683 ft 531 kts 65°
2026-05-04 14:54 44.83468 -62.19703 36683 ft 531 kts 65°
2026-05-04 14:55 44.86499 -62.10223 36674 ft 530 kts 65°
2026-05-04 14:55 44.89522 -62.00735 36671 ft 530 kts 65°
2026-05-04 14:56 44.92536 -61.91241 36665 ft 530 kts 65°
2026-05-04 14:56 44.95525 -61.81788 36659 ft 530 kts 65°
2026-05-04 14:57 44.98530 -61.72252 36649 ft 530 kts 65°
2026-05-04 14:57 45.01526 -61.62708 36648 ft 531 kts 65°
2026-05-04 14:58 45.04498 -61.53208 36640 ft 531 kts 65°
2026-05-04 14:58 45.06973 -61.45269 36633 ft 531 kts 66°
2026-05-04 14:59 45.10449 -61.34077 36625 ft 531 kts 66°
2026-05-04 15:00 45.14880 -61.19737 36614 ft 531 kts 66°
2026-05-04 15:00 45.17834 -61.10134 36596 ft 531 kts 66°
2026-05-04 15:01 45.22254 -60.95695 36590 ft 532 kts 66°
2026-05-04 15:01 45.25192 -60.86054 36583 ft 532 kts 66°
2026-05-04 15:02 45.28119 -60.76409 36575 ft 532 kts 66°
2026-05-04 15:02 45.31026 -60.66797 36567 ft 532 kts 66°
2026-05-04 15:03 45.33942 -60.57118 36556 ft 532 kts 66°
2026-05-04 15:03 45.36357 -60.49072 36555 ft 532 kts 66°
2026-05-04 15:04 45.39255 -60.39381 36548 ft 532 kts 66°
2026-05-04 15:04 45.42145 -60.29683 36539 ft 532 kts 67°
2026-05-04 15:05 45.45028 -60.19969 36534 ft 532 kts 67°
2026-05-04 15:05 45.47887 -60.10300 36531 ft 532 kts 67°
2026-05-04 15:06 45.50751 -60.00576 36525 ft 532 kts 67°
2026-05-04 15:07 45.55032 -59.85969 36524 ft 532 kts 67°
2026-05-04 15:07 45.57874 -59.76225 36523 ft 532 kts 67°
2026-05-04 15:08 45.60692 -59.66526 36518 ft 532 kts 68°
2026-05-04 15:08 45.63519 -59.56759 36518 ft 531 kts 68°
2026-05-04 15:09 45.66342 -59.46963 36514 ft 531 kts 68°
2026-05-04 15:09 45.69148 -59.37190 36514 ft 531 kts 68°
2026-05-04 15:10 45.73325 -59.22566 36506 ft 531 kts 68°
2026-05-04 15:11 45.77499 -59.07869 36498 ft 531 kts 68°
2026-05-04 15:11 45.80269 -58.98064 36493 ft 531 kts 68°
2026-05-04 15:12 45.83017 -58.88297 36487 ft 531 kts 69°
2026-05-04 15:12 45.85780 -58.78438 36478 ft 532 kts 69°
2026-05-04 15:13 45.88535 -58.68570 36477 ft 533 kts 69°
2026-05-04 15:13 45.91273 -58.58721 36472 ft 533 kts 69°
2026-05-04 15:14 45.94021 -58.48793 36464 ft 534 kts 69°
2026-05-04 15:14 45.96766 -58.38838 36457 ft 535 kts 69°
2026-05-04 15:15 45.99501 -58.28879 36454 ft 536 kts 69°
2026-05-04 15:15 46.02212 -58.18967 36451 ft 536 kts 70°
2026-05-04 15:16 46.06298 -58.03939 36454 ft 542 kts 70°
2026-05-04 15:17 46.10429 -57.88659 36427 ft 542 kts 70°
2026-05-04 15:17 46.14497 -57.73515 36431 ft 542 kts 70°
2026-05-04 15:18 46.17217 -57.63329 36424 ft 544 kts 70°
2026-05-04 15:19 46.21251 -57.48150 36413 ft 541 kts 71°
2026-05-04 15:19 46.25296 -57.32827 36403 ft 540 kts 71°
2026-05-04 15:20 46.27961 -57.22679 36418 ft 542 kts 71°
2026-05-04 15:20 46.30636 -57.12444 36406 ft 543 kts 71°
2026-05-04 15:21 46.33293 -57.02237 36399 ft 540 kts 71°
2026-05-04 15:22 46.37240 -56.86986 36393 ft 541 kts 72°
2026-05-04 15:22 46.41176 -56.71654 36396 ft 543 kts 72°
2026-05-04 15:23 46.43792 -56.61429 36397 ft 539 kts 72°
2026-05-04 15:23 46.46382 -56.51268 36390 ft 539 kts 72°
2026-05-04 15:24 46.51542 -56.30870 36371 ft 537 kts 72°
2026-05-04 15:25 46.54100 -56.20688 36370 ft 536 kts 73°
2026-05-04 15:26 46.57910 -56.05432 36370 ft 535 kts 73°
2026-05-04 15:26 46.61714 -55.90098 36388 ft 537 kts 73°
2026-05-04 15:27 46.65472 -55.74856 36404 ft 531 kts 73°
2026-05-04 15:28 46.69174 -55.59735 36416 ft 525 kts 73°
2026-05-04 15:29 46.72798 -55.44829 36419 ft 519 kts 74°
2026-05-04 15:30 46.81204 -55.09846 36442 ft 528 kts 74°
2026-05-04 15:31 46.84813 -54.94668 36452 ft 529 kts 74°
2026-05-04 15:32 46.90795 -54.69280 36460 ft 526 kts 75°
2026-05-04 15:34 46.96678 -54.44008 36470 ft 523 kts 75°
2026-05-04 15:34 47.00165 -54.28887 36481 ft 522 kts 75°
2026-05-04 15:35 47.03613 -54.13827 36498 ft 521 kts 75°
2026-05-04 15:36 47.07059 -53.98674 36497 ft 521 kts 76°
2026-05-04 15:36 47.09329 -53.88632 36501 ft 521 kts 76°
2026-05-04 15:37 47.11604 -53.78520 36511 ft 521 kts 76°
2026-05-04 15:37 47.13871 -53.68397 36514 ft 521 kts 76°
2026-05-04 15:38 47.16129 -53.58265 36515 ft 522 kts 76°
2026-05-04 15:38 47.18379 -53.48117 36524 ft 522 kts 76°
2026-05-04 15:39 47.20604 -53.38039 36524 ft 522 kts 76°
2026-05-04 15:40 47.23951 -53.22781 36516 ft 522 kts 77°
2026-05-04 15:40 47.26170 -53.12606 36538 ft 522 kts 77°
2026-05-04 15:41 47.28385 -53.02396 36535 ft 522 kts 77°
2026-05-04 15:41 47.30574 -52.92257 36533 ft 522 kts 77°
2026-05-04 15:42 47.32765 -52.82058 36532 ft 522 kts 77°
2026-05-04 15:42 47.34952 -52.71829 36531 ft 521 kts 77°
2026-05-04 15:43 47.37111 -52.61681 36528 ft 521 kts 77°
2026-05-04 15:43 47.39269 -52.51486 36537 ft 520 kts 77°
2026-05-04 15:44 47.41418 -52.41279 36555 ft 520 kts 78°
2026-05-04 15:44 47.43557 -52.31072 36567 ft 520 kts 78°
2026-05-04 15:45 47.45689 -52.20845 36578 ft 519 kts 78°
2026-05-04 15:45 47.47792 -52.10707 36587 ft 519 kts 78°
2026-05-04 15:46 47.49909 -52.00487 36597 ft 520 kts 77°
2026-05-04 15:46 47.52406 -51.90406 36607 ft 522 kts 73°
2026-05-04 15:47 47.55057 -51.80387 36610 ft 522 kts 73°
2026-05-04 15:47 47.57693 -51.70349 36609 ft 522 kts 74°
2026-05-04 15:48 47.60271 -51.60367 36623 ft 522 kts 74°
2026-05-04 15:48 47.64131 -51.45260 36634 ft 522 kts 75°
2026-05-04 15:49 47.66698 -51.35163 36636 ft 521 kts 75°
2026-05-04 15:49 47.69237 -51.25142 36637 ft 521 kts 75°
2026-05-04 15:50 47.71779 -51.15063 36641 ft 521 kts 75°
2026-05-04 15:50 47.74313 -51.04972 36645 ft 521 kts 75°
2026-05-04 15:51 47.76411 -50.96581 36650 ft 521 kts 76°
2026-05-04 15:51 47.78928 -50.86474 36661 ft 521 kts 76°
2026-05-04 15:52 47.81438 -50.76349 36669 ft 521 kts 76°
2026-05-04 15:52 47.83923 -50.66280 36670 ft 520 kts 76°
2026-05-04 15:53 47.86408 -50.56166 36673 ft 520 kts 76°
2026-05-04 15:53 47.88885 -50.46038 36678 ft 520 kts 76°
2026-05-04 15:54 47.91353 -50.35900 36684 ft 519 kts 76°
2026-05-04 15:54 47.93806 -50.25777 36691 ft 518 kts 77°
2026-05-04 15:55 47.96229 -50.15731 36696 ft 518 kts 77°
2026-05-04 15:55 47.98659 -50.05612 36701 ft 517 kts 77°
2026-05-04 15:56 48.01096 -49.95515 36710 ft 516 kts 76°
2026-05-04 15:56 48.03627 -49.85455 36715 ft 516 kts 76°
2026-05-04 15:57 48.06153 -49.75487 36707 ft 515 kts 76°
2026-05-04 15:57 48.08668 -49.65461 36707 ft 514 kts 77°
2026-05-04 15:58 48.11157 -49.55447 36719 ft 513 kts 77°
2026-05-04 15:58 48.13631 -49.45430 36720 ft 512 kts 77°
2026-05-04 15:59 48.16081 -49.35467 36722 ft 512 kts 77°
2026-05-04 15:59 48.18541 -49.25427 36731 ft 512 kts 77°
2026-05-04 16:00 48.20987 -49.15398 36741 ft 512 kts 77°
2026-05-04 16:00 48.23424 -49.05346 36738 ft 512 kts 78°
2026-05-04 16:01 48.25837 -48.95368 36739 ft 513 kts 78°
2026-05-04 16:01 48.28266 -48.85280 36744 ft 513 kts 78°
2026-05-04 16:02 48.30684 -48.75185 36748 ft 513 kts 78°
2026-05-04 16:03 48.34277 -48.60097 36748 ft 513 kts 78°
2026-05-04 16:03 48.36672 -48.49983 36755 ft 512 kts 78°
2026-05-04 16:04 48.39058 -48.39857 36760 ft 512 kts 78°
2026-05-04 16:04 48.42591 -48.24779 36763 ft 511 kts 78°
2026-05-04 16:05 48.44941 -48.14692 36781 ft 510 kts 78°
2026-05-04 16:06 48.48444 -47.99562 36774 ft 509 kts 78°
2026-05-04 16:07 48.53073 -47.79404 36778 ft 507 kts 78°
2026-05-04 16:08 48.57640 -47.59331 36786 ft 506 kts 78°
2026-05-04 16:09 48.63307 -47.34154 36795 ft 505 kts 78°
2026-05-04 16:10 48.67784 -47.14050 36805 ft 505 kts 78°
2026-05-04 16:11 48.72228 -46.93900 36802 ft 504 kts 78°
2026-05-04 16:12 48.78815 -46.63671 36819 ft 504 kts 78°
2026-05-04 16:13 48.83153 -46.43512 36828 ft 504 kts 77°
2026-05-04 16:14 48.87483 -46.23195 36834 ft 506 kts 77°
2026-05-04 16:16 48.92850 -45.97728 36844 ft 508 kts 77°
2026-05-04 16:17 48.98197 -45.72029 36844 ft 510 kts 77°
2026-05-04 16:18 49.02428 -45.51458 36855 ft 511 kts 76°
2026-05-04 16:19 49.07686 -45.25591 36872 ft 512 kts 76°
2026-05-04 16:20 49.12918 -44.99513 36892 ft 515 kts 76°
2026-05-04 16:22 49.18099 -44.73337 36903 ft 517 kts 76°
2026-05-04 16:23 49.24259 -44.41749 36935 ft 517 kts 76°
2026-05-04 16:25 49.30345 -44.10028 36917 ft 515 kts 78°
2026-05-04 16:26 49.37301 -43.73068 36991 ft 518 kts 77°
2026-05-04 16:28 49.42233 -43.46429 37006 ft 521 kts 77°
2026-05-04 16:29 49.49073 -43.08833 37026 ft 522 kts 77°
2026-05-04 16:31 49.53873 -42.81973 37051 ft 521 kts 77°
2026-05-04 16:32 49.59556 -42.49642 37076 ft 522 kts 76°
2026-05-04 16:33 49.63294 -42.28048 37090 ft 522 kts 76°
2026-05-04 16:34 49.66082 -42.11767 37101 ft 523 kts 76°
2026-05-04 16:35 49.71590 -41.79145 37124 ft 523 kts 76°
2026-05-04 16:36 49.74303 -41.62852 37140 ft 523 kts 76°
2026-05-04 16:37 49.77003 -41.46472 37145 ft 523 kts 76°
2026-05-04 16:38 49.80554 -41.24691 37155 ft 523 kts 75°
2026-05-04 16:39 49.84945 -40.97359 37169 ft 524 kts 75°
2026-05-04 16:40 49.88128 -40.77253 37185 ft 524 kts 75°
2026-05-04 16:41 49.92411 -40.49813 37195 ft 524 kts 75°
2026-05-04 16:43 49.96636 -40.22274 37210 ft 524 kts 75°
2026-05-04 16:43 49.99140 -40.05733 37215 ft 524 kts 75°
2026-05-04 16:45 50.06489 -39.74071 37232 ft 519 kts 65°
2026-05-04 16:46 50.13028 -39.47906 37243 ft 519 kts 65°
2026-05-04 16:47 50.18179 -39.26933 37250 ft 518 kts 65°
2026-05-04 16:48 50.23289 -39.05955 37256 ft 516 kts 65°
2026-05-04 16:49 50.28358 -38.84946 37265 ft 515 kts 65°
2026-05-04 16:50 50.33358 -38.64023 37268 ft 513 kts 65°
2026-05-04 16:51 50.37067 -38.48370 37273 ft 513 kts 65°
2026-05-04 16:52 50.41992 -38.27410 37289 ft 512 kts 65°
2026-05-04 16:53 50.45656 -38.11684 37291 ft 511 kts 65°
2026-05-04 16:54 50.50484 -37.90781 37297 ft 510 kts 65°
2026-05-04 16:55 50.57638 -37.59422 37307 ft 507 kts 65°
2026-05-04 16:56 50.63512 -37.33322 37313 ft 504 kts 64°
2026-05-04 16:57 50.66978 -37.17770 37319 ft 502 kts 64°
2026-05-04 16:58 50.71570 -36.96981 37325 ft 501 kts 64°
2026-05-04 17:00 50.78361 -36.65858 37325 ft 500 kts 64°
2026-05-04 17:01 50.83970 -36.39790 37345 ft 501 kts 64°
2026-05-04 17:02 50.88419 -36.18867 37344 ft 503 kts 64°
2026-05-04 17:03 50.91746 -36.03079 37349 ft 503 kts 64°
2026-05-04 17:03 50.95049 -35.87278 37349 ft 503 kts 64°
2026-05-04 17:04 50.99401 -35.66269 37350 ft 502 kts 65°
2026-05-04 17:05 51.03726 -35.45170 37352 ft 501 kts 65°
2026-05-04 17:06 51.06922 -35.29435 37350 ft 500 kts 65°
2026-05-04 17:07 51.09768 -35.15357 37371 ft 500 kts 71°
2026-05-04 17:07 51.12209 -35.03132 37350 ft 497 kts 71°
2026-05-04 17:08 51.15317 -34.87488 37350 ft 494 kts 71°
2026-05-04 17:09 51.17381 -34.77035 37362 ft 493 kts 71°
2026-05-04 17:09 51.19437 -34.66568 37357 ft 493 kts 71°
2026-05-04 17:10 51.24519 -34.40442 37362 ft 495 kts 71°
2026-05-04 17:11 51.26544 -34.29933 37367 ft 495 kts 71°
2026-05-04 17:12 51.29555 -34.14193 37370 ft 496 kts 71°
2026-05-04 17:13 51.34553 -33.87776 37377 ft 496 kts 71°
2026-05-04 17:14 51.38489 -33.66706 37379 ft 495 kts 71°
2026-05-04 17:15 51.41424 -33.50839 37385 ft 494 kts 72°
2026-05-04 17:16 51.45285 -33.29758 37392 ft 494 kts 72°
2026-05-04 17:17 51.49116 -33.08592 37390 ft 493 kts 72°
2026-05-04 17:18 51.52893 -32.87480 37397 ft 493 kts 72°
2026-05-04 17:19 51.56644 -32.66272 37402 ft 492 kts 73°
2026-05-04 17:20 51.60338 -32.45128 37407 ft 492 kts 73°
2026-05-04 17:20 51.63094 -32.29194 37402 ft 492 kts 73°
2026-05-04 17:21 51.66716 -32.08023 37417 ft 491 kts 73°
2026-05-04 17:22 51.68518 -31.97395 37417 ft 491 kts 73°
2026-05-04 17:23 51.72093 -31.76112 37408 ft 492 kts 74°
2026-05-04 17:24 51.74751 -31.60119 37421 ft 492 kts 74°
2026-05-04 17:25 51.78259 -31.38771 37409 ft 492 kts 74°
2026-05-04 17:26 51.81719 -31.17456 37407 ft 492 kts 74°
2026-05-04 17:27 51.86005 -30.90667 37421 ft 492 kts 75°
2026-05-04 17:28 51.89381 -30.69251 37411 ft 492 kts 75°
2026-05-04 17:29 51.94169 -30.38401 37421 ft 502 kts 74°
2026-05-04 17:31 51.98347 -30.10985 37409 ft 499 kts 75°
2026-05-04 17:32 52.02371 -29.83701 37416 ft 497 kts 75°
2026-05-04 17:33 52.05477 -29.61828 37414 ft 496 kts 76°
2026-05-04 17:34 52.08558 -29.39924 37413 ft 497 kts 76°
2026-05-04 17:35 52.12345 -29.12559 37411 ft 497 kts 76°
2026-05-04 17:36 52.13845 -29.01573 37410 ft 497 kts 76°
2026-05-04 17:36 52.15336 -28.90573 37411 ft 497 kts 76°
2026-05-04 17:37 52.16817 -28.79564 37410 ft 497 kts 76°
2026-05-04 17:37 52.18287 -28.68548 37411 ft 497 kts 76°
2026-05-04 17:38 52.19737 -28.57604 37410 ft 497 kts 77°
2026-05-04 17:38 52.21187 -28.46576 37411 ft 497 kts 77°
2026-05-04 17:39 52.23342 -28.30024 37407 ft 497 kts 77°
2026-05-04 17:39 52.24766 -28.18982 37407 ft 497 kts 77°
2026-05-04 17:40 52.26170 -28.08010 37405 ft 497 kts 77°
2026-05-04 17:40 52.27572 -27.96959 37406 ft 497 kts 77°
2026-05-04 17:41 52.28964 -27.85905 37404 ft 496 kts 77°
2026-05-04 17:41 52.30347 -27.74829 37405 ft 496 kts 77°
2026-05-04 17:42 52.31709 -27.63837 37403 ft 496 kts 77°
2026-05-04 17:42 52.33068 -27.52774 37402 ft 496 kts 77°
2026-05-04 17:43 52.34418 -27.41693 37402 ft 496 kts 78°
2026-05-04 17:43 52.35759 -27.30600 37406 ft 496 kts 78°
2026-05-04 17:44 52.37079 -27.19581 37405 ft 496 kts 78°
2026-05-04 17:44 52.38397 -27.08493 37405 ft 496 kts 78°
2026-05-04 17:45 52.39707 -26.97373 37405 ft 496 kts 78°
2026-05-04 17:45 52.40997 -26.86338 37403 ft 495 kts 78°
2026-05-04 17:46 52.42281 -26.75248 37403 ft 495 kts 78°
2026-05-04 17:46 52.43557 -26.64135 37407 ft 495 kts 78°
2026-05-04 17:47 52.44820 -26.53041 37406 ft 495 kts 78°
2026-05-04 17:47 52.46069 -26.41971 37403 ft 495 kts 78°
2026-05-04 17:48 52.47311 -26.30860 37403 ft 495 kts 78°
2026-05-04 17:48 52.48545 -26.19727 37401 ft 495 kts 78°
2026-05-04 17:49 52.49759 -26.08673 37403 ft 495 kts 79°
2026-05-04 17:49 52.50971 -25.97533 37399 ft 495 kts 79°
2026-05-04 17:50 52.52172 -25.86399 37399 ft 495 kts 79°
2026-05-04 17:50 52.53364 -25.75246 37405 ft 495 kts 79°
2026-05-04 17:51 52.54545 -25.64084 37401 ft 495 kts 79°
2026-05-04 17:51 52.55714 -25.52933 37399 ft 495 kts 79°
2026-05-04 17:52 52.56866 -25.41846 37399 ft 495 kts 79°
2026-05-04 17:52 52.58013 -25.30690 37395 ft 495 kts 79°
2026-05-04 17:53 52.59152 -25.19510 37399 ft 495 kts 79°
2026-05-04 17:53 52.60280 -25.08323 37394 ft 495 kts 79°
2026-05-04 17:54 52.61389 -24.97222 37388 ft 495 kts 79°
2026-05-04 17:54 52.62495 -24.86038 37390 ft 495 kts 79°
2026-05-04 17:55 52.63591 -24.74847 37388 ft 494 kts 79°
2026-05-04 17:55 52.64675 -24.63654 37388 ft 494 kts 79°
2026-05-04 17:56 52.65748 -24.52468 37388 ft 494 kts 80°
2026-05-04 17:56 52.66805 -24.41342 37390 ft 494 kts 80°
2026-05-04 17:57 52.67857 -24.30142 37385 ft 494 kts 80°
2026-05-04 17:57 52.68898 -24.18938 37386 ft 494 kts 80°
2026-05-04 17:58 52.69928 -24.07742 37381 ft 493 kts 80°
2026-05-04 17:58 52.70940 -23.96619 37382 ft 493 kts 80°
2026-05-04 17:59 52.71950 -23.85399 37380 ft 493 kts 80°
2026-05-04 18:00 52.73441 -23.68606 37377 ft 493 kts 80°
2026-05-04 18:00 52.74423 -23.57395 37372 ft 493 kts 80°
2026-05-04 18:01 52.75384 -23.46288 37375 ft 492 kts 81°
2026-05-04 18:01 52.76344 -23.35080 37384 ft 492 kts 81°
2026-05-04 18:02 52.77761 -23.18283 37371 ft 492 kts 81°
2026-05-04 18:02 52.78692 -23.07083 37371 ft 491 kts 81°
2026-05-04 18:03 52.79611 -22.95903 37368 ft 491 kts 81°
2026-05-04 18:03 52.80514 -22.84790 37369 ft 491 kts 81°
2026-05-04 18:04 52.81412 -22.73593 37363 ft 490 kts 81°
2026-05-04 18:05 52.82736 -22.56832 37361 ft 490 kts 81°
2026-05-04 18:05 52.83607 -22.45647 37360 ft 490 kts 81°
2026-05-04 18:06 52.84891 -22.28887 37362 ft 490 kts 81°
2026-05-04 18:06 52.85728 -22.17777 37358 ft 490 kts 81°
2026-05-04 18:07 52.86561 -22.06587 37359 ft 489 kts 81°
2026-05-04 18:07 52.87383 -21.95395 37356 ft 489 kts 81°
2026-05-04 18:08 52.88194 -21.84202 37346 ft 489 kts 82°
2026-05-04 18:08 52.88994 -21.73019 37354 ft 489 kts 82°
2026-05-04 18:09 52.90557 -21.50721 37339 ft 488 kts 82°
2026-05-04 18:10 52.91325 -21.39531 37337 ft 488 kts 82°
2026-05-04 18:10 52.92080 -21.28364 37344 ft 488 kts 82°
2026-05-04 18:11 52.92826 -21.17181 37333 ft 487 kts 82°
2026-05-04 18:11 52.93561 -21.06009 37338 ft 487 kts 82°
2026-05-04 18:12 52.94280 -20.94913 37334 ft 487 kts 82°
2026-05-04 18:12 52.94993 -20.83747 37329 ft 487 kts 82°
2026-05-04 18:13 52.95696 -20.72558 37330 ft 486 kts 82°
2026-05-04 18:14 52.96726 -20.55871 37323 ft 486 kts 83°
2026-05-04 18:14 52.97402 -20.44694 37322 ft 486 kts 83°
2026-05-04 18:15 52.98613 -20.24215 37319 ft 486 kts 83°
2026-05-04 18:16 52.99259 -20.13046 37318 ft 486 kts 83°
2026-05-04 18:16 52.99897 -20.01849 37318 ft 486 kts 83°
2026-05-04 18:17 53.00366 -19.85074 37310 ft 487 kts 87°
2026-05-04 18:18 53.00631 -19.68190 37309 ft 487 kts 87°
2026-05-04 18:18 53.00821 -19.56924 37307 ft 488 kts 87°
2026-05-04 18:19 53.01102 -19.40080 37304 ft 488 kts 87°
2026-05-04 18:19 53.01279 -19.28771 37301 ft 488 kts 88°
2026-05-04 18:20 53.01443 -19.17485 37300 ft 489 kts 88°
2026-05-04 18:20 53.01596 -19.06262 37294 ft 489 kts 88°
2026-05-04 18:21 53.01738 -18.94978 37294 ft 489 kts 88°
2026-05-04 18:21 53.01870 -18.83665 37289 ft 489 kts 88°
2026-05-04 18:22 53.01991 -18.72376 37288 ft 489 kts 88°
2026-05-04 18:22 53.02102 -18.61095 37282 ft 488 kts 88°
2026-05-04 18:23 53.02202 -18.49816 37284 ft 488 kts 88°
2026-05-04 18:23 53.02290 -18.38620 37276 ft 487 kts 88°
2026-05-04 18:24 53.02368 -18.27343 37278 ft 486 kts 88°
2026-05-04 18:24 53.02436 -18.16078 37271 ft 486 kts 88°
2026-05-04 18:25 53.02493 -18.04931 37270 ft 486 kts 88°
2026-05-04 18:25 53.02539 -17.93699 37270 ft 485 kts 89°
2026-05-04 18:26 53.02575 -17.82486 37263 ft 485 kts 89°
2026-05-04 18:26 53.02600 -17.71261 37262 ft 485 kts 89°
2026-05-04 18:27 53.02615 -17.60110 37268 ft 485 kts 89°
2026-05-04 18:27 53.02619 -17.48912 37263 ft 484 kts 89°
2026-05-04 18:28 53.02613 -17.37705 37257 ft 485 kts 89°
2026-05-04 18:28 53.02596 -17.26510 37259 ft 485 kts 89°
2026-05-04 18:29 53.02569 -17.15304 37256 ft 485 kts 89°
2026-05-04 18:29 53.02531 -17.04089 37256 ft 485 kts 89°
2026-05-04 18:30 53.02455 -16.87315 37245 ft 486 kts 89°
2026-05-04 18:31 53.02390 -16.76077 37250 ft 486 kts 89°
2026-05-04 18:31 53.02316 -16.64883 37241 ft 486 kts 90°
2026-05-04 18:32 53.02230 -16.53615 37241 ft 486 kts 90°
2026-05-04 18:32 53.02133 -16.42362 37235 ft 487 kts 90°
2026-05-04 18:33 53.02028 -16.31189 37240 ft 487 kts 90°
2026-05-04 18:33 53.01910 -16.19913 37229 ft 487 kts 90°
2026-05-04 18:34 53.01782 -16.08647 37238 ft 487 kts 90°
2026-05-04 18:34 53.01643 -15.97384 37227 ft 487 kts 90°
2026-05-04 18:35 53.01494 -15.86193 37232 ft 487 kts 90°
2026-05-04 18:35 53.01334 -15.74924 37220 ft 487 kts 90°
2026-05-04 18:36 53.01164 -15.63670 37229 ft 487 kts 90°
2026-05-04 18:36 53.00983 -15.52426 37321 ft 488 kts 90°
2026-05-04 18:36 53.00889 -15.46861 37656 ft 489 kts 91°
2026-05-04 18:37 53.00792 -15.41216 38060 ft 488 kts 90°
2026-05-04 18:37 53.00692 -15.35581 38459 ft 487 kts 90°
2026-05-04 18:37 53.00590 -15.29976 38837 ft 486 kts 90°
2026-05-04 18:37 53.00485 -15.24365 39098 ft 486 kts 90°
2026-05-04 18:38 53.00377 -15.18715 39152 ft 491 kts 91°
2026-05-04 18:38 53.00152 -15.07323 39206 ft 492 kts 91°
2026-05-04 18:39 52.99944 -14.96080 39202 ft 486 kts 89°
2026-05-04 18:39 52.99977 -14.84917 39205 ft 481 kts 88°
2026-05-04 18:40 53.00061 -14.73841 39208 ft 479 kts 88°
2026-05-04 18:40 53.00099 -14.62773 39207 ft 479 kts 89°
2026-05-04 18:41 53.00106 -14.51720 39208 ft 479 kts 89°
2026-05-04 18:41 53.00100 -14.40703 39206 ft 481 kts 89°
2026-05-04 18:42 53.00086 -14.29586 39206 ft 482 kts 89°
2026-05-04 18:42 53.00062 -14.18447 39200 ft 483 kts 89°
2026-05-04 18:43 53.00029 -14.07286 39198 ft 483 kts 89°
2026-05-04 18:43 52.99760 -13.96114 39194 ft 484 kts 96°
2026-05-04 18:44 52.98833 -13.85060 39197 ft 484 kts 98°
2026-05-04 18:44 52.97843 -13.74074 39192 ft 483 kts 98°
2026-05-04 18:45 52.96866 -13.63030 39190 ft 483 kts 97°
2026-05-04 18:45 52.95903 -13.51998 39196 ft 482 kts 97°
2026-05-04 18:46 52.94940 -13.40987 39191 ft 482 kts 97°
2026-05-04 18:46 52.93972 -13.30043 39191 ft 482 kts 98°
2026-05-04 18:47 52.92987 -13.19042 39190 ft 481 kts 98°
2026-05-04 18:47 52.92000 -13.08149 39190 ft 481 kts 98°
2026-05-04 18:48 52.90997 -12.97188 39186 ft 481 kts 98°
2026-05-04 18:48 52.89983 -12.86228 39185 ft 480 kts 98°
2026-05-04 18:49 52.88961 -12.75285 39182 ft 480 kts 98°
2026-05-04 18:49 52.87936 -12.64431 39182 ft 479 kts 98°
2026-05-04 18:50 52.86895 -12.53520 39177 ft 479 kts 98°
2026-05-04 18:50 52.85845 -12.42620 39178 ft 479 kts 98°
2026-05-04 18:51 52.84787 -12.31748 39180 ft 478 kts 98°
2026-05-04 18:51 52.83719 -12.20879 39179 ft 478 kts 98°
2026-05-04 18:52 52.82650 -12.10106 39172 ft 477 kts 98°
2026-05-04 18:52 52.81565 -11.99275 39171 ft 476 kts 98°
2026-05-04 18:53 52.80473 -11.88477 39170 ft 476 kts 98°
2026-05-04 18:53 52.79371 -11.77687 39171 ft 475 kts 98°
2026-05-04 18:54 52.78270 -11.66996 39162 ft 474 kts 98°
2026-05-04 18:54 52.77152 -11.56250 39167 ft 474 kts 98°
2026-05-04 18:55 52.76028 -11.45534 39161 ft 473 kts 98°
2026-05-04 18:55 52.74326 -11.29509 39162 ft 472 kts 98°
2026-05-04 18:56 52.73190 -11.18919 39157 ft 471 kts 98°
2026-05-04 18:56 52.72038 -11.08276 39154 ft 470 kts 98°
2026-05-04 18:57 52.70877 -10.97651 39157 ft 469 kts 98°
2026-05-04 18:57 52.69710 -10.87063 39151 ft 469 kts 98°
2026-05-04 18:58 52.68533 -10.76471 39164 ft 468 kts 99°
2026-05-04 18:58 52.67356 -10.65974 39154 ft 468 kts 99°
2026-05-04 18:59 52.66163 -10.55410 39152 ft 468 kts 99°
2026-05-04 18:59 52.64961 -10.44870 39148 ft 468 kts 99°
2026-05-04 19:00 52.63757 -10.34397 39152 ft 468 kts 99°
2026-05-04 19:00 52.62537 -10.23867 39155 ft 468 kts 99°
2026-05-04 19:01 52.61516 -10.15123 39144 ft 468 kts 99°
2026-05-04 19:01 52.60280 -10.04617 39146 ft 467 kts 99°
2026-05-04 19:02 52.59035 -9.94116 39144 ft 467 kts 99°
2026-05-04 19:02 52.57780 -9.83617 39142 ft 467 kts 99°
2026-05-04 19:03 52.56526 -9.73205 39135 ft 467 kts 99°
2026-05-04 19:03 52.55254 -9.62730 39137 ft 466 kts 99°
2026-05-04 19:04 52.53974 -9.52269 39135 ft 466 kts 99°
2026-05-04 19:04 52.52686 -9.41827 39128 ft 466 kts 99°
2026-05-04 19:05 52.51397 -9.31455 39122 ft 466 kts 99°
2026-05-04 19:05 52.50091 -9.21025 39120 ft 466 kts 100°
2026-05-04 19:06 52.48776 -9.10602 39118 ft 466 kts 100°
2026-05-04 19:06 52.47452 -9.00188 39113 ft 465 kts 100°
2026-05-04 19:07 52.46127 -8.89843 39111 ft 465 kts 100°
2026-05-04 19:07 52.44786 -8.79457 39105 ft 465 kts 100°
2026-05-04 19:08 52.43439 -8.69090 39108 ft 465 kts 100°
2026-05-04 19:08 52.42083 -8.58736 39101 ft 465 kts 101°
2026-05-04 19:09 52.40717 -8.48380 39100 ft 464 kts 101°
2026-05-04 19:09 52.39355 -8.38128 39096 ft 464 kts 101°
2026-05-04 19:10 52.37973 -8.27801 39094 ft 464 kts 101°
2026-05-04 19:10 52.36582 -8.17482 39089 ft 463 kts 101°
2026-05-04 19:11 52.35183 -8.07169 39087 ft 463 kts 101°
2026-05-04 19:11 52.33778 -7.96886 39088 ft 463 kts 101°
2026-05-04 19:12 52.31659 -7.81522 39083 ft 464 kts 102°
2026-05-04 19:13 52.30227 -7.71225 39087 ft 464 kts 102°
2026-05-04 19:13 52.28788 -7.60941 39085 ft 464 kts 102°
2026-05-04 19:14 52.27345 -7.50706 39094 ft 465 kts 102°
2026-05-04 19:14 52.25882 -7.40399 39090 ft 466 kts 102°
2026-05-04 19:15 52.24408 -7.30084 39095 ft 466 kts 102°
2026-05-04 19:15 52.22933 -7.19835 39103 ft 467 kts 102°
2026-05-04 19:16 52.21439 -7.09515 39102 ft 467 kts 102°
2026-05-04 19:16 52.19935 -6.99197 39104 ft 468 kts 102°
2026-05-04 19:17 52.18419 -6.88869 39101 ft 468 kts 103°
2026-05-04 19:17 52.16894 -6.78545 39096 ft 468 kts 103°
2026-05-04 19:18 52.15368 -6.68286 39091 ft 468 kts 103°
2026-05-04 19:18 52.13822 -6.57953 39085 ft 468 kts 103°
2026-05-04 19:19 52.12283 -6.47739 39077 ft 467 kts 103°
2026-05-04 19:19 52.10727 -6.37476 39079 ft 467 kts 103°
2026-05-04 19:20 52.09162 -6.27216 39074 ft 466 kts 103°
2026-05-04 19:20 52.07592 -6.16981 39075 ft 466 kts 103°
2026-05-04 19:21 52.06000 -6.06771 39067 ft 466 kts 105°
2026-05-04 19:21 52.03704 -5.96997 39072 ft 466 kts 114°
2026-05-04 19:22 52.00963 -5.87449 39065 ft 466 kts 114°
2026-05-04 19:22 51.98222 -5.77906 39067 ft 466 kts 114°
2026-05-04 19:23 51.95501 -5.68349 39058 ft 467 kts 114°
2026-05-04 19:23 51.92774 -5.58768 39056 ft 467 kts 114°
2026-05-04 19:24 51.90060 -5.49266 39052 ft 468 kts 114°
2026-05-04 19:24 51.87314 -5.39700 39055 ft 468 kts 114°
2026-05-04 19:25 51.84557 -5.30136 39049 ft 469 kts 115°
2026-05-04 19:25 51.81788 -5.20566 39050 ft 469 kts 115°
2026-05-04 19:26 51.79024 -5.11046 39050 ft 470 kts 115°
2026-05-04 19:26 51.76288 -5.01452 39047 ft 470 kts 113°
2026-05-04 19:27 51.73750 -4.91713 39041 ft 470 kts 112°
2026-05-04 19:27 51.71238 -4.82016 39036 ft 470 kts 112°
2026-05-04 19:28 51.68672 -4.72286 39038 ft 471 kts 113°
2026-05-04 19:28 51.66101 -4.62635 39041 ft 471 kts 113°
2026-05-04 19:29 51.63506 -4.52940 39031 ft 471 kts 113°
2026-05-04 19:29 51.60899 -4.43234 39032 ft 472 kts 113°
2026-05-04 19:30 51.58289 -4.33549 39029 ft 472 kts 113°
2026-05-04 19:30 51.55667 -4.23847 39028 ft 472 kts 112°
2026-05-04 19:31 51.53718 -4.13854 39023 ft 472 kts 101°
2026-05-04 19:31 51.52597 -4.03412 38560 ft 477 kts 99°
2026-05-04 19:31 51.52048 -3.98176 38042 ft 473 kts 100°
2026-05-04 19:32 51.51483 -3.93003 37587 ft 467 kts 100°
2026-05-04 19:32 51.50908 -3.87902 37120 ft 461 kts 100°
2026-05-04 19:32 51.50328 -3.82873 36671 ft 455 kts 101°
2026-05-04 19:32 51.49742 -3.77894 36232 ft 450 kts 101°
2026-05-04 19:33 51.49162 -3.72983 35803 ft 446 kts 101°
2026-05-04 19:33 51.48587 -3.68111 35349 ft 441 kts 101°
2026-05-04 19:33 51.48028 -3.63346 34906 ft 438 kts 100°
2026-05-04 19:33 51.47629 -3.58515 34458 ft 434 kts 96°
2026-05-04 19:34 51.47348 -3.53712 34019 ft 431 kts 95°
2026-05-04 19:34 51.47085 -3.48949 33505 ft 427 kts 96°
2026-05-04 19:34 51.46826 -3.44224 33031 ft 423 kts 96°
2026-05-04 19:34 51.46563 -3.39546 32601 ft 419 kts 96°
2026-05-04 19:35 51.46295 -3.34911 32159 ft 415 kts 96°
2026-05-04 19:35 51.46026 -3.30327 31732 ft 411 kts 97°
2026-05-04 19:35 51.45754 -3.25783 31304 ft 407 kts 97°
2026-05-04 19:35 51.45482 -3.21280 30897 ft 404 kts 97°
2026-05-04 19:36 51.45210 -3.16823 30490 ft 400 kts 98°
2026-05-04 19:36 51.44942 -3.12449 30081 ft 398 kts 98°
2026-05-04 19:36 51.44671 -3.08054 29605 ft 395 kts 98°
2026-05-04 19:36 51.44400 -3.03682 29170 ft 391 kts 98°
2026-05-04 19:37 51.44130 -2.99362 28748 ft 387 kts 98°
2026-05-04 19:37 51.43861 -2.95072 28332 ft 384 kts 99°
2026-05-04 19:37 51.43593 -2.90826 27906 ft 381 kts 99°
2026-05-04 19:37 51.43325 -2.86611 27494 ft 378 kts 99°
2026-05-04 19:38 51.43061 -2.82479 27080 ft 376 kts 99°
2026-05-04 19:38 51.42794 -2.78323 26677 ft 374 kts 99°
2026-05-04 19:38 51.42526 -2.74191 26269 ft 372 kts 99°
2026-05-04 19:38 51.42260 -2.70084 25863 ft 370 kts 99°
2026-05-04 19:39 51.41992 -2.65996 25465 ft 368 kts 99°
2026-05-04 19:39 51.41724 -2.61915 25065 ft 367 kts 99°
2026-05-04 19:39 51.41456 -2.57848 24663 ft 366 kts 99°
2026-05-04 19:39 51.41189 -2.53804 24266 ft 365 kts 99°
2026-05-04 19:40 51.40919 -2.49759 23866 ft 364 kts 99°
2026-05-04 19:40 51.40648 -2.45729 23441 ft 364 kts 99°
2026-05-04 19:40 51.40376 -2.41705 22981 ft 363 kts 99°
2026-05-04 19:40 51.40103 -2.37692 22551 ft 361 kts 99°
2026-05-04 19:41 51.39830 -2.33698 22136 ft 360 kts 99°
2026-05-04 19:41 51.39556 -2.29717 21725 ft 358 kts 98°
2026-05-04 19:41 51.39287 -2.25807 21329 ft 357 kts 98°
2026-05-04 19:41 51.39014 -2.21859 20917 ft 356 kts 98°
2026-05-04 19:42 51.38740 -2.17925 20522 ft 354 kts 98°
2026-05-04 19:42 51.38467 -2.14009 20114 ft 353 kts 98°
2026-05-04 19:42 51.38193 -2.10104 19712 ft 353 kts 98°
2026-05-04 19:42 51.37919 -2.06206 19305 ft 352 kts 98°
2026-05-04 19:43 51.37643 -2.02309 18896 ft 352 kts 98°
2026-05-04 19:43 51.37365 -1.98417 18498 ft 351 kts 98°
2026-05-04 19:43 51.37086 -1.94526 18057 ft 351 kts 97°
2026-05-04 19:43 51.36806 -1.90646 17611 ft 351 kts 98°
2026-05-04 19:44 51.36525 -1.86777 17184 ft 349 kts 97°
2026-05-04 19:44 51.36245 -1.82921 16777 ft 348 kts 97°
2026-05-04 19:44 51.35968 -1.79124 16374 ft 347 kts 97°
2026-05-04 19:44 51.35688 -1.75298 15976 ft 345 kts 97°
2026-05-04 19:45 51.35407 -1.71486 15574 ft 344 kts 97°
2026-05-04 19:45 51.35127 -1.67693 15180 ft 343 kts 97°
2026-05-04 19:45 51.34847 -1.63910 14785 ft 342 kts 97°
2026-05-04 19:45 51.34569 -1.60187 14370 ft 330 kts 97°
2026-05-04 19:46 51.34300 -1.56607 14062 ft 317 kts 97°
2026-05-04 19:46 51.34045 -1.53190 14020 ft 314 kts 97°
2026-05-04 19:46 51.33777 -1.49602 13503 ft 323 kts 97°
2026-05-04 19:46 51.33514 -1.46090 13155 ft 320 kts 97°
2026-05-04 19:47 51.33251 -1.42586 12855 ft 315 kts 97°
2026-05-04 19:47 51.32991 -1.39130 12569 ft 310 kts 97°
2026-05-04 19:47 51.32734 -1.35729 12294 ft 306 kts 97°
2026-05-04 19:47 51.32479 -1.32380 12034 ft 301 kts 97°
2026-05-04 19:48 51.32226 -1.29059 11766 ft 299 kts 97°
2026-05-04 19:48 51.32061 -1.26883 11601 ft 298 kts 97°
2026-05-04 19:48 51.31809 -1.23609 11338 ft 296 kts 97°
2026-05-04 19:48 51.31556 -1.20335 11078 ft 296 kts 97°
2026-05-04 19:49 51.31250 -1.15988 10733 ft 297 kts 94°
2026-05-04 19:49 51.31184 -1.12684 10480 ft 299 kts 91°
2026-05-04 19:49 51.31176 -1.10430 10304 ft 300 kts 91°
2026-05-04 19:49 51.31169 -1.07104 10009 ft 299 kts 91°
2026-05-04 19:50 51.31143 -1.03829 9681 ft 296 kts 91°
2026-05-04 19:50 51.31112 -1.00564 9464 ft 290 kts 91°
2026-05-04 19:50 51.31081 -0.97327 9046 ft 291 kts 91°
2026-05-04 19:50 51.31052 -0.94160 8756 ft 279 kts 91°
2026-05-04 19:51 51.31128 -0.91135 8488 ft 269 kts 77°
2026-05-04 19:51 51.31939 -0.88488 8264 ft 268 kts 48°
2026-05-04 19:51 51.33453 -0.86762 8094 ft 270 kts 19°
2026-05-04 19:51 51.35283 -0.86207 7999 ft 266 kts
2026-05-04 19:52 51.37091 -0.86056 7908 ft 260 kts
2026-05-04 19:52 51.38877 -0.85962 7671 ft 256 kts
2026-05-04 19:52 51.40673 -0.85882 7207 ft 261 kts
2026-05-04 19:52 51.42494 -0.85804 6708 ft 259 kts
2026-05-04 19:53 51.44287 -0.85681 6191 ft 256 kts
2026-05-04 19:53 51.45911 -0.84610 5603 ft 255 kts 39°
2026-05-04 19:53 51.46945 -0.82371 5036 ft 250 kts 69°
2026-05-04 19:53 51.47346 -0.79722 4345 ft 247 kts 80°
2026-05-04 19:54 51.47578 -0.76979 3596 ft 247 kts 84°
2026-05-04 19:54 51.47662 -0.74308 3328 ft 238 kts 88°
2026-05-04 19:54 51.47672 -0.71670 2967 ft 231 kts 88°
2026-05-04 19:54 51.47674 -0.69193 2673 ft 212 kts 88°
2026-05-04 19:55 51.47681 -0.66929 2390 ft 192 kts 88°
2026-05-04 19:55 51.47689 -0.64881 2119 ft 175 kts 88°
2026-05-04 19:55 51.47694 -0.63066 1907 ft 149 kts 87°
2026-05-04 19:55 51.47700 -0.61518 1714 ft 134 kts 86°
2026-05-04 19:56 51.47708 -0.59990 1518 ft 139 kts 86°
2026-05-04 19:56 51.47712 -0.58431 1360 ft 138 kts 86°
2026-05-04 19:56 51.47718 -0.56890 1140 ft 137 kts 86°
2026-05-04 19:56 51.47724 -0.55359 969 ft 138 kts 88°
2026-05-04 19:57 51.47730 -0.53791 760 ft 143 kts 86°
2026-05-04 19:57 51.47734 -0.52251 576 ft 137 kts 88°
2026-05-04 19:57 51.47738 -0.50741 398 ft 136 kts 88°
2026-05-04 19:57 51.47744 -0.49192 241 ft 140 kts 87°
2026-05-04 19:58 51.47745 -0.47643 94 ft 133 kts 88°
2026-05-04 19:58 51.47758 -0.46367 96 ft 90 kts 89°
2026-05-04 19:58 51.47760 -0.45636 93 ft 56 kts 89°
2026-05-04 19:58 51.47753 -0.45253 95 ft 20 kts 113°
2026-05-04 19:59 51.47639 -0.45177 95 ft 0 kts 178°
2026-05-04 19:59 51.47637 -0.45177 95 ft 1 kts 179°
2026-05-04 19:59 51.47623 -0.45177 94 ft 3 kts 179°
2026-05-04 19:59 51.47595 -0.45177 92 ft 5 kts 179°
2026-05-04 20:00 51.47546 -0.45167 96 ft 9 kts 159°
2026-05-04 20:00 51.47511 -0.45076 95 ft 11 kts 96°
2026-05-04 20:00 51.47509 -0.44939 95 ft 13 kts 89°
2026-05-04 20:00 51.47510 -0.44795 95 ft 13 kts 89°
2026-05-04 20:01 51.47507 -0.44648 95 ft 15 kts 96°
2026-05-04 20:01 51.47502 -0.44453 94 ft 20 kts 90°
2026-05-04 20:01 51.47506 -0.44209 95 ft 22 kts 90°
2026-05-04 20:01 51.47435 -0.44039 95 ft 14 kts 189°
2026-05-04 20:02 51.47418 -0.44102 95 ft 0 kts 264°
2026-05-04 20:02 51.47418 -0.44115 93 ft 2 kts 265°
2026-05-04 20:02 51.47416 -0.44164 93 ft 6 kts 267°
2026-05-04 20:02 51.47416 -0.44200 94 ft 1 kts 270°
2026-05-04 20:03 51.47416 -0.44203 93 ft 0 kts 270°